Regional Weather Roundup
Issued by NWS

Home | Current Version | Previous Version | Text Only | Print | Product List | Glossary Off
Versions: 1 2 3 4 5 6 7 8 9 10 11 12 13 14 15 16 17 18 19 20 21 22 23 24 25 26 27 28 29 30 31 32 33 34 35 36 37 38 39 40 41 42 43 44 45 46 47 48 49 50

000
ASUS43 KBIS 160910
RWRND

NORTH DAKOTA REGIONAL WEATHER ROUNDUP
NATIONAL WEATHER SERVICE BISMARCK ND
400 AM CDT WED APR 16 2014

NOTE: "FAIR" INDICATES FEW OR NO CLOUDS BELOW 12,000 FEET WITH NO
SIGNIFICANT WEATHER AND/OR OBSTRUCTIONS TO VISIBILITY.


NDZ001>003-009>011-017-161000-
NORTHWEST NORTH DAKOTA

CITY           SKY/WX    TMP DP  RH WIND       PRES   REMARKS
WILLISTON        N/A    N/A N/A N/A MISG      29.88R
MINOT          LGT SNOW  24  20  84 NE16      29.93R FOG     WCI  11
MINOT AFB      LGT SNOW  24  23  98 E15       29.93R VSB 3/4 WCI  11
$$

NDZ018>021-031>035-040>046-161000-
SOUTHWEST NORTH DAKOTA

CITY           SKY/WX    TMP DP  RH WIND       PRES   REMARKS
BISMARCK       CLOUDY    29  17  61 E18       29.82R WCI  16
DICKINSON      CLOUDY    26  17  68 E15       29.72S WCI  14
GARRISON         N/A     25  20  81 E17G25    29.86R WCI  12
HETTINGER ARPT CLOUDY    28  20  71 NE16      29.70R WCI  16
$$

NDZ004>008-012>016-024-026-027-054-161000-
NORTHEAST NORTH DAKOTA

CITY           SKY/WX    TMP DP  RH WIND       PRES   REMARKS
GRAND FORKS    CLOUDY    29  14  53 E13       29.98R WCI  19
GRND FRKS AFB  CLOUDY    29  13  52 E12       30.02R WCI  19
DEVILS LAKE    CLOUDY    27  16  63 E16G25    29.96S WCI  14
$$

NDZ022-023-025-028>030-036>039-047>053-161000-
SOUTHEAST NORTH DAKOTA

CITY           SKY/WX    TMP DP  RH WIND       PRES   REMARKS
FARGO          LGT SNOW  28  24  85 E13       29.95R VSB 3/4 WCI  17
JAMESTOWN      CLOUDY    27  25  92 E21G29    29.87R WCI  13
$$




USA.gov is the U.S. government's official web portal to all federal, state and local government web resources and services.